(211276) = 2002 RV114

Discovered at Socorro on 2002-09-06 by LINEAR.

Orbit

Orbit type: Main Belt

Note: WebGL enabled browser required.

epoch2024-03-31.0
epoch JD2460400.5
perihelion date2021-04-19.59070
perihelion JD2459324.09070
argument of perihelion (°)80.07018
ascending node (°)223.18928
inclination (°)5.41884
eccentricity0.1528335
perihelion distance (AU)2.0504254
Tisserand w.r.t. Jupiter3.5
ΔV w.r.t. Earth (km/sec)9.1
semimajor axis (AU)2.4203333
mean anomaly (°)281.75298
mean daily motion (°/day)0.26175260
aphelion distance (AU)2.790
period (years)3.77
P-vector [x]0.54541835
P-vector [y]-0.80125147
P-vector [z]-0.24599777
Q-vector [x]0.83566825
Q-vector [y]0.49721362
Q-vector [z]0.23331778
absolute magnitude16.8
phase slope0.15
uncertainty0
referenceMPEC 2024-F14
observations used503
oppositions13
arc length (days)7919
first opposition used2002
last opposition used2024
residual rms (arc-secs)0.71
perturbers coarse indicatorM-v
perturbers precise indicator003Ek
first observation date used2002-07-12.0
last observation date used2024-03-17.0
computer nameMPCLINUX
JD of orbit computation2456966.905918
perihelion JD uncertainty (days)2.3593E-04
argument of perihelion uncertainty (°)8.6069E-05
ascending node uncertainty (°)6.7059E-05
inclination uncertainty (°)8.5793E-06
eccentricity uncertainty 5.5754E-08
perihelion distance uncertainty (AU)1.2654E-07
Minimum Orbit Intersection Distances (in AU)
for orbit epoch: 2460400.5, reference: E2024-GB3
Mercury1.61682
Venus1.33256
Earth1.04346
Mars0.65741
Jupiter2.42628
Saturn6.30325
Uranus15.7388
Neptune27.278

Observations

515 total observations over interval: 2002 07 12.43654 – 2024 03 17.580638
These data are available for download (format description).

Date (UT) J2000 RA J2000 Dec Magn Location Ref
2002 07 12.43654 21 46 20.56 -03 14 24.6 19.4   644 – Palomar Mountain/NEAT MPS 82981
2002 07 12.44687 21 46 20.35 -03 14 23.5 19.3   644 – Palomar Mountain/NEAT MPS 82981
2002 07 12.45732 21 46 20.16 -03 14 22.3 19.2   644 – Palomar Mountain/NEAT MPS 82981
2002 07 21.37312 21 42 36.04 -03 05 36.7 19.1   644 – Palomar Mountain/NEAT MPS 82981
2002 07 21.38717 21 42 35.53 -03 05 36.7 19.1   644 – Palomar Mountain/NEAT MPS 82981
2002 07 21.40110 21 42 35.06 -03 05 37.0 19.0   644 – Palomar Mountain/NEAT MPS 82981
2002 08 05.43938 21 32 07.11 -03 32 39.1 18.5   644 – Palomar Mountain/NEAT MPS 82981
2002 08 05.44997 21 32 06.59 -03 32 41.2 18.4   644 – Palomar Mountain/NEAT MPS 82981
2002 08 05.46026 21 32 06.07 -03 32 43.4 18.5   644 – Palomar Mountain/NEAT MPS 82981
2002 08 12.23169 21 26 26.89 -04 00 20.4 19.0   704 – Lincoln Laboratory ETS, New Mexico MPS 82981
2002 08 12.26083 21 26 25.36 -04 00 28.3 19.5   704 – Lincoln Laboratory ETS, New Mexico MPS 82981
2002 08 12.27508 21 26 24.63 -04 00 31.3 19.2   704 – Lincoln Laboratory ETS, New Mexico MPS 82981
2002 08 12.28933 21 26 23.83 -04 00 35.2 19.7   704 – Lincoln Laboratory ETS, New Mexico MPS 82981
2002 08 16.36611 21 22 57.90 -04 20 47.2 18.7   644 – Palomar Mountain/NEAT MPS 82981
2002 08 16.38941 21 22 56.67 -04 20 54.5 18.7   644 – Palomar Mountain/NEAT MPS 82981
2002 08 16.41043 21 22 55.57 -04 21 01.3 18.6   644 – Palomar Mountain/NEAT MPS 82981
2002 08 26.34082 21 15 11.65 -05 17 29.7 19.5   644 – Palomar Mountain/NEAT MPS 82981
2002 08 26.36186 21 15 10.74 -05 17 37.4 19.1   644 – Palomar Mountain/NEAT MPS 82981
2002 08 26.38410 21 15 09.72 -05 17 45.3 19.3   644 – Palomar Mountain/NEAT MPS 82981
2002 09 06.19143 21 08 51.56 -06 23 07.2 19.9   704 – Lincoln Laboratory ETS, New Mexico MPS 61745
2002 09 06.20562 21 08 51.12 -06 23 12.4 19.8   704 – Lincoln Laboratory ETS, New Mexico MPS 61745
2002 09 06.21982 21 08 50.72 -06 23 18.2 19.5   704 – Lincoln Laboratory ETS, New Mexico MPS 61745
2002 09 06.23424 21 08 50.23 -06 23 23.0 19.5   704 – Lincoln Laboratory ETS, New Mexico MPS 61745
2002 09 06.24841 21 08 49.84 -06 23 28.4 19.9   704 – Lincoln Laboratory ETS, New Mexico MPS 61745
2002 09 08.38526 21 07 56.89 -06 36 00.3 20.5   608 – Haleakala-AMOS MPS 61745
2002 09 08.39616 21 07 56.59 -06 36 04.2 20.4   608 – Haleakala-AMOS MPS 61745
2002 09 08.40696 21 07 56.30 -06 36 08.0 20.6   608 – Haleakala-AMOS MPS 61745
2002 09 13.35918 21 06 25.98 -07 04 00.0 20.7   608 – Haleakala-AMOS MPS 61745
2002 09 13.36953 21 06 25.78 -07 04 04.2 21.1   608 – Haleakala-AMOS MPS 61745
2002 09 13.38034 21 06 25.64 -07 04 07.9 21.2   608 – Haleakala-AMOS MPS 61745
2002 10 04.18809 21 08 37.79 -08 31 13.4 20.1   704 – Lincoln Laboratory ETS, New Mexico MPS 63549
2002 10 04.20379 21 08 38.19 -08 31 16.1 19.7   704 – Lincoln Laboratory ETS, New Mexico MPS 63549
2002 10 04.23522 21 08 38.93 -08 31 20.9 19.8   704 – Lincoln Laboratory ETS, New Mexico MPS 63549
2005 03 09.44214 12 52 52.91 -11 15 17.3 20.9 V 691 – Steward Observatory, Kitt Peak-Spacewatch MPS 131635
2005 03 09.46800 12 52 51.91 -11 15 10.7 20.8 V 691 – Steward Observatory, Kitt Peak-Spacewatch MPS 131635
2005 03 09.49385 12 52 50.88 -11 15 04.2 20.7 V 691 – Steward Observatory, Kitt Peak-Spacewatch MPS 131635
2005 04 14.25477 12 23 17.53 -07 12 35.4 20.3 R 703 – Catalina Sky Survey MPS 131635
2005 04 14.26538 12 23 16.92 -07 12 30.4 19.9 R 703 – Catalina Sky Survey MPS 131635
2005 04 14.27597 12 23 16.40 -07 12 24.9 18.3 R 703 – Catalina Sky Survey MPS 131635
2005 04 14.29204 12 23 15.50 -07 12 17.6 19.0 R 703 – Catalina Sky Survey MPS 131635
2005 05 12.20905 12 08 57.38 -04 14 12.9 20.1 R G96 – Mt. Lemmon Survey MPS 133940
2005 05 12.21837 12 08 57.27 -04 14 10.3 20.1 R G96 – Mt. Lemmon Survey MPS 133940
2005 05 12.22764 12 08 57.15 -04 14 08.1 20.2 R G96 – Mt. Lemmon Survey MPS 133940
2005 05 12.23692 12 08 57.07 -04 14 05.6 19.8 R G96 – Mt. Lemmon Survey MPS 133940
2006 09 06.38904 00 31 57.03 +10 43 56.1 19.7 R 644 – Palomar Mountain/NEAT MPS 180893
2006 09 06.39998 00 31 56.63 +10 43 53.1 20.2 R 644 – Palomar Mountain/NEAT MPS 180893
2006 09 06.41574 00 31 55.97 +10 43 48.8 19.6 R 644 – Palomar Mountain/NEAT MPS 180893
2006 09 17.32514 00 24 06.66 +09 38 39.5 19.4 V 703 – Catalina Sky Survey MPS 179208
2006 09 17.33726 00 24 05.97 +09 38 34.0 19.2 V 703 – Catalina Sky Survey MPS 179208
2006 09 17.34939 00 24 05.43 +09 38 27.6 19.0 V 703 – Catalina Sky Survey MPS 179208
2006 09 17.36157 00 24 04.82 +09 38 24.0 19.2 V 703 – Catalina Sky Survey MPS 179208
2006 09 18.21433 00 23 23.82 +09 32 17.1 19.8 V 691 – Steward Observatory, Kitt Peak-Spacewatch MPS 179208
2006 09 18.23165 00 23 22.93 +09 32 09.8 19.6 V 691 – Steward Observatory, Kitt Peak-Spacewatch MPS 179208
2006 09 18.24897 00 23 22.05 +09 32 02.1 19.6 V 691 – Steward Observatory, Kitt Peak-Spacewatch MPS 179208
2006 09 19.31759 00 22 29.43 +09 24 11.6 19.2 R 699 – Lowell Observatory-LONEOS MPS 179208
2006 09 19.33953 00 22 28.32 +09 24 02.9   699 – Lowell Observatory-LONEOS MPS 179208
2006 09 19.36149 00 22 27.24 +09 23 53.2   699 – Lowell Observatory-LONEOS MPS 179208
2006 09 19.38342 00 22 26.08 +09 23 42.2   699 – Lowell Observatory-LONEOS MPS 179208
2006 09 25.24017 00 17 30.57 +08 37 46.2 19.8   704 – Lincoln Laboratory ETS, New Mexico MPS 180893
2006 09 25.25229 00 17 29.95 +08 37 39.9 19.4   704 – Lincoln Laboratory ETS, New Mexico MPS 180893
2006 09 25.26448 00 17 29.20 +08 37 34.8 19.5   704 – Lincoln Laboratory ETS, New Mexico MPS 180893
2006 09 25.27659 00 17 28.58 +08 37 27.7 19.2   704 – Lincoln Laboratory ETS, New Mexico MPS 180893
2006 09 27.17857 00 15 51.67 +08 21 42.2 18.7 R 699 – Lowell Observatory-LONEOS MPS 180893
2006 09 27.20052 00 15 50.51 +08 21 31.0   699 – Lowell Observatory-LONEOS MPS 180893
2006 09 27.22242 00 15 49.34 +08 21 19.2   699 – Lowell Observatory-LONEOS MPS 180893
2006 09 29.21507 00 14 08.01 +08 04 29.0 19.3   704 – Lincoln Laboratory ETS, New Mexico MPS 182540
2006 09 29.23927 00 14 06.75 +08 04 17.0 19.5   704 – Lincoln Laboratory ETS, New Mexico MPS 182540
2006 09 29.26344 00 14 05.41 +08 04 03.9 19.7   704 – Lincoln Laboratory ETS, New Mexico MPS 182540
2006 10 02.27499 00 11 34.72 +07 38 11.5 18.9 V G96 – Mt. Lemmon Survey MPS 182540
2006 10 02.28120 00 11 34.40 +07 38 08.1 19.1 V G96 – Mt. Lemmon Survey MPS 182540
2006 10 02.28750 00 11 34.08 +07 38 04.8 18.9 V G96 – Mt. Lemmon Survey MPS 182540
2006 10 02.29376 00 11 33.75 +07 38 01.9 18.8 V G96 – Mt. Lemmon Survey MPS 182540
2006 10 17.16657 00 00 54.10 +05 32 34.8 19.7 V 703 – Catalina Sky Survey MPS 182843
2006 10 17.17350 00 00 53.74 +05 32 30.6 19.9 V 703 – Catalina Sky Survey MPS 182843
2006 10 17.18044 00 00 53.64 +05 32 30.4 19.9 V 703 – Catalina Sky Survey MPS 182843
2006 10 17.18733 00 00 53.38 +05 32 25.2 19.8 V 703 – Catalina Sky Survey MPS 182843
2006 10 23.16271 23 57 53.82 +04 47 55.4 20.0 R 644 – Palomar Mountain/NEAT MPS 183980
2006 10 23.18342 23 57 53.24 +04 47 47.0 19.5 R 644 – Palomar Mountain/NEAT MPS 183980
2006 10 23.20524 23 57 52.64 +04 47 37.6 19.6 R 644 – Palomar Mountain/NEAT MPS 183980
2007 12 18.36106 08 20 43.87 +12 07 39.1 21.3 V G96 – Mt. Lemmon Survey MPS 231737
2007 12 18.36724 08 20 43.62 +12 07 38.9 21.3 V G96 – Mt. Lemmon Survey MPS 231737
2007 12 18.37346 08 20 43.40 +12 07 39.2 21.1 V G96 – Mt. Lemmon Survey MPS 231737
2007 12 18.37982 08 20 43.18 +12 07 38.8 21.4 V G96 – Mt. Lemmon Survey MPS 231737
2008 01 15.24252 07 57 08.96 +12 33 08.1 20.6 V G96 – Mt. Lemmon Survey MPS 234161
2008 01 15.24956 07 57 08.49 +12 33 08.6 20.5 V G96 – Mt. Lemmon Survey MPS 234161
2008 01 15.25663 07 57 08.06 +12 33 10.1 20.3 V G96 – Mt. Lemmon Survey MPS 234161
2008 01 15.26374 07 57 07.77 +12 33 12.0 20.8 V G96 – Mt. Lemmon Survey MPS 234161
2009 03 26.44130 15 00 58.00 -18 52 39.8 20.3 V 691 – Steward Observatory, Kitt Peak-Spacewatch MPS 281227
2009 03 26.45898 15 00 57.76 -18 52 36.7 20.5 V 691 – Steward Observatory, Kitt Peak-Spacewatch MPS 281227
2009 03 26.47666 15 00 57.52 -18 52 33.7 20.3 V 691 – Steward Observatory, Kitt Peak-Spacewatch MPS 281227
2009 04 02.42948 14 58 57.71 -18 31 08.0 20.3 V 691 – Steward Observatory, Kitt Peak-Spacewatch MPS 282494
